Flag for Germany Weather past 2 weeks in Bitterfeld-Wolfen, Saxony-Anhalt, Germany

Now
41 °F

Light rain. Partly cloudy.


Feels Like: 34 °F
Forecast: 40 / 51 °F
Wind: 13 mph from Southwest

Location: Leipzig-Schkeuditz

Current Time: Mar 27, 2015 at 2:54:56 AM

Latest Report: Mar 27, 2015 at 2:20 AM


Visibility: N/A

Pressure: 29.77 "Hg

Humidity: 93%

Dew point: 39 °F

Location of Bitterfeld-WolfenLocation

Historic Weather in Bitterfeld-Wolfen — Graph

°F

Bitterfeld-Wolfen temperature yesterday

Maximum temperature yesterday: 50 °F (at 1:20 AM)
Minimum temperature yesterday: 43 °F (at 3:50 AM)
Average temperature yesterday: 45 °F

Past Weeks' High & Low Weather Summary

 TemperatureHumidityPressure
High63 °F (Mar 17, 2:50 PM)100% (Mar 12, 5:20 AM)30.48 "Hg (Mar 12, 5:20 AM)
Low25 °F (Mar 23, 2:50 AM)28% (Mar 19, 3:20 PM)29.59 "Hg (Mar 26, 12:20 AM)
Average42 °F78%30.15 "Hg
* Reported Mar 12 1:20 AM — Mar 27 1:50 AM, Bitterfeld-Wolfen, Weather by CustomWeather, © 2015

Note: Actual official high and low records may vary slightly from our data, if they occured in-between our weather recording intervals... More about our weather records

Advertising

Bitterfeld-Wolfen weather history for previous 24 hours

 ConditionsComfort  
Time TempWeatherWind HumidityBarometerVisibility
1:50 AM
Fri, Mar 27
41 °FLight rain. Passing clouds.12 mph93%29.77 "HgN/A
1:20 AM43 °FLight rain. Partly cloudy.13 mph81%29.77 "HgN/A
12:50 AM43 °FPartly cloudy.13 mph87%29.77 "HgN/A
12:20 AM43 °FPartly cloudy.9 mph87%29.77 "HgN/A
11:50 PM
Thu, Mar 26
45 °FPartly cloudy.8 mph81%29.77 "HgN/A
11:20 PM45 °FPassing clouds.7 mph81%29.77 "HgN/A
10:50 PM45 °FPartly cloudy.7 mph81%29.77 "HgN/A
10:20 PM45 °FPartly cloudy.6 mph81%29.77 "HgN/A
9:50 PM45 °FLight rain. Passing clouds.6 mph81%29.77 "HgN/A
9:20 PM45 °FPassing clouds.6 mph81%29.77 "HgN/A
8:50 PM45 °FPassing clouds.7 mph81%29.77 "HgN/A
8:20 PM45 °FMostly cloudy.6 mph81%29.77 "HgN/A
7:50 PM45 °FMostly cloudy.6 mph87%29.74 "HgN/A
7:20 PM45 °FOvercast.6 mph81%29.74 "HgN/A
6:50 PM45 °FOvercast.5 mph81%29.74 "HgN/A
6:20 PM46 °FBroken clouds.6 mph76%29.74 "HgN/A
5:50 PM46 °FMostly cloudy.6 mph76%29.74 "HgN/A
5:20 PM46 °FPartly sunny.7 mph76%29.74 "Hg6 mi
4:50 PM46 °FMostly cloudy.6 mph76%29.74 "Hg6 mi
4:20 PM46 °FMore clouds than sun.6 mph76%29.74 "Hg6 mi
3:50 PM46 °FPartly sunny.7 mph76%29.74 "HgN/A
3:20 PM46 °FPartly sunny.5 mph76%29.74 "HgN/A
2:50 PM46 °FPartly sunny.3 mph76%29.74 "HgN/A
2:20 PM46 °FPartly sunny.3 mph76%29.74 "HgN/A
1:50 PM46 °FPartly sunny.5 mph76%29.74 "HgN/A
1:20 PM45 °FPartly sunny.6 mph81%29.74 "HgN/A
12:50 PM45 °FPartly sunny.7 mph81%29.74 "HgN/A
12:20 PM45 °FPartly sunny.6 mph81%29.74 "HgN/A
11:50 AM45 °FPartly sunny.10 mph81%29.74 "HgN/A
11:20 AM45 °FPartly sunny.13 mph81%29.74 "HgN/A
10:50 AM45 °FPartly sunny.10 mph81%29.74 "Hg6 mi
10:20 AM45 °FPartly sunny.10 mph81%29.74 "Hg5 mi
9:50 AM43 °FPartly sunny.12 mph87%29.74 "Hg4 mi
9:20 AM43 °FPartly sunny.10 mph87%29.74 "Hg4 mi
8:50 AM43 °FLight rain. Partly sunny.12 mph93%29.71 "Hg4 mi
8:20 AM43 °FLight rain. Partly sunny.9 mph93%29.71 "Hg3 mi
7:50 AM43 °FPartly sunny.10 mph93%29.71 "Hg3 mi
7:20 AM43 °FLight rain. Partly sunny.12 mph93%29.68 "Hg3 mi
6:50 AM43 °FLight rain. Fog.10 mph93%29.68 "Hg3 mi
6:20 AM43 °FLight rain. Fog.12 mph93%29.68 "Hg2 mi
5:50 AM43 °FLight rain. Fog.13 mph93%29.68 "Hg3 mi
5:20 AM43 °FLight rain. Passing clouds.14 mph93%29.68 "Hg4 mi
4:50 AM43 °FPassing clouds.16 mph93%29.65 "Hg4 mi
4:20 AM43 °FFog.17 mph93%29.65 "Hg3 mi
3:50 AM43 °FFog.17 mph93%29.65 "Hg3 mi
3:20 AM45 °FPassing clouds.15 mph87%29.62 "Hg4 mi
2:50 AM45 °FPassing clouds.14 mph87%29.62 "Hg4 mi
2:20 AM48 °FPassing clouds.12 mph76%29.62 "HgN/A
Weather by CustomWeather, © 2015

See weather overviewHow to use our weather pages